Change the Weather History Date:

Saturday, June 22, 2013

  Actual Average (KBMQ) Record (KBMQ)
Temperature  
Mean Temperature 84 °F -  
Max Temperature 96 °F 88 °F 96 °F (1998)
Min Temperature 73 °F 69 °F 64 °F (2011)
Cooling Degree Days 20    
Growing Degree Days 34 (Base 50)    
Moisture  
Dew Point 63 °F    
Average Humidity 52    
Maximum Humidity 81    
Minimum Humidity 25    
Precipitation  
Precipitation 0.00 in - - ()
Sea Level Pressure  
Sea Level Pressure 29.99 in    
Wind  
Wind Speed 9 mph (South)    
Max Wind Speed 14 mph    
Max Gust Speed 25 mph    
Visibility 10 miles    
Events      
Averages and records for this station are not official NWS values.
T = Trace of Precipitation, MM = Missing Value Source: NWS Daily Summary

Daily Weather History Graph

Daily Weather History Graph

Search for Another Location

Airport or City:

Trip Planner

Search our weather history database for the weather conditions in past years. The results will help you decide how hot, cold, wet, or windy it might be!

Date:

Astronomy

Jun. 22, 2013 Rise Set
Actual Time 5:31 AM MDT 7:39 PM MDT
Civil Twilight 5:04 AM MDT 8:06 PM MDT
Nautical Twilight 4:30 AM MDT 8:40 PM MDT
Astronomical Twilight 3:54 AM MDT 9:16 PM MDT
Moon 6:59 PM MDT (6/22) 4:41 AM MDT (6/22)
Length of Visible Light 15h 02m
Length of Day
14h 07m
Waxing Gibbous, 99% of the Moon is Illuminated
Jun 22
Waxing Gibbous
Jun 23
Full
Jun 29
Last Quarter
Jul 8
New
Jul 15
First Quarter

Hourly Weather History & Observations

Time (MDT) Temp. Heat Index Dew Point Humidity Pressure Visibility Wind Dir Wind Speed Gust Speed Precip Events Conditions
12:15 AM 78.8 °F - 66.6 °F 66% 30.01 in 10.0 mi South 11.5 mph 21.9 mph N/A   Clear
12:35 AM 78.1 °F - 67.1 °F 69% 30.01 in 10.0 mi SSE 5.8 mph 18.4 mph N/A   Clear
12:55 AM 77.2 °F - 67.3 °F 71% 30.00 in 10.0 mi SSE 8.1 mph - N/A   Clear
1:15 AM 76.8 °F - 67.5 °F 73% 30.00 in 10.0 mi SSE 8.1 mph - N/A   Clear
1:35 AM 76.3 °F - 67.6 °F 74% 30.00 in 10.0 mi South 9.2 mph 16.1 mph N/A   Clear
1:55 AM 76.1 °F - 68.0 °F 76% 30.00 in 10.0 mi South 9.2 mph 16.1 mph N/A   Clear
2:15 AM 75.6 °F - 68.2 °F 78% 29.99 in 10.0 mi South 8.1 mph - N/A   Clear
2:35 AM 75.6 °F - 68.0 °F 77% 29.99 in 10.0 mi South 9.2 mph - N/A   Clear
2:55 AM 75.2 °F - 67.5 °F 77% 29.99 in 10.0 mi South 8.1 mph 16.1 mph N/A   Clear
3:15 AM 75.2 °F - 67.5 °F 77% 29.99 in 10.0 mi South 10.4 mph - N/A   Scattered Clouds
3:35 AM 75.0 °F - 67.5 °F 77% 29.99 in 10.0 mi South 5.8 mph - N/A   Scattered Clouds
3:55 AM 74.5 °F - 67.3 °F 78% 29.99 in 10.0 mi South 5.8 mph - N/A   Clear
4:15 AM 74.5 °F - 67.5 °F 79% 30.00 in 10.0 mi South 5.8 mph - N/A   Clear
4:35 AM 74.3 °F - 68.0 °F 81% 30.01 in 10.0 mi South 4.6 mph - N/A   Scattered Clouds
4:55 AM 75.0 °F - 68.0 °F 79% 30.01 in 10.0 mi South 5.8 mph - N/A   Mostly Cloudy
5:15 AM 74.5 °F - 68.0 °F 80% 30.01 in 10.0 mi South 5.8 mph - N/A   Mostly Cloudy
5:35 AM 74.3 °F - 67.6 °F 80% 30.01 in 10.0 mi South 4.6 mph - N/A   Clear
5:55 AM 73.9 °F - 67.8 °F 81% 30.02 in 10.0 mi SSE 3.5 mph - N/A   Clear
6:15 AM 74.7 °F - 68.0 °F 80% 30.02 in 10.0 mi South 4.6 mph - N/A   Clear
6:35 AM 75.2 °F - 68.0 °F 78% 30.03 in 10.0 mi SSE 3.5 mph - N/A   Scattered Clouds
6:55 AM 75.2 °F - 68.2 °F 79% 30.03 in 10.0 mi SSE 3.5 mph - N/A   Mostly Cloudy
7:15 AM 75.2 °F - 68.4 °F 79% 30.04 in 10.0 mi South 5.8 mph - N/A   Overcast
7:35 AM 77.2 °F - 68.4 °F 74% 30.05 in 10.0 mi South 9.2 mph - N/A   Overcast
7:55 AM 78.6 °F - 67.5 °F 68% 30.06 in 10.0 mi South 6.9 mph 16.1 mph N/A   Overcast
8:15 AM 80.4 °F 82.7 °F 66.9 °F 63% 30.06 in 10.0 mi South 12.7 mph 18.4 mph N/A   Mostly Cloudy
8:35 AM 81.5 °F 83.7 °F 66.6 °F 60% 30.06 in 10.0 mi South 10.4 mph 18.4 mph N/A   Scattered Clouds
8:55 AM 82.4 °F 84.2 °F 65.5 °F 56% 30.06 in 7.0 mi South 9.2 mph 16.1 mph N/A   Scattered Clouds
9:15 AM 83.1 °F 85.0 °F 65.5 °F 55% 30.05 in 7.0 mi South 10.4 mph 16.1 mph N/A   Scattered Clouds
9:35 AM 84.4 °F 86.3 °F 65.3 °F 53% 30.05 in 7.0 mi South 9.2 mph 18.4 mph N/A   Scattered Clouds
9:55 AM 85.3 °F 87.1 °F 65.1 °F 51% 30.05 in 7.0 mi South 6.9 mph 16.1 mph N/A   Mostly Cloudy
10:15 AM 86.5 °F 88.1 °F 64.6 °F 48% 30.05 in 10.0 mi South 11.5 mph 18.4 mph N/A   Scattered Clouds
10:35 AM 87.3 °F 88.9 °F 64.6 °F 47% 30.06 in 10.0 mi South 8.1 mph 18.4 mph N/A   Scattered Clouds
10:55 AM 87.8 °F 89.1 °F 64.0 °F 45% 30.04 in 10.0 mi SSE 12.7 mph 17.3 mph N/A   Scattered Clouds
11:15 AM 89.2 °F 90.2 °F 63.5 °F 42% 30.04 in 10.0 mi South 9.2 mph 18.4 mph N/A   Scattered Clouds
11:35 AM 89.8 °F 90.4 °F 62.6 °F 40% 30.04 in 10.0 mi SSW 6.9 mph 18.4 mph N/A   Scattered Clouds
11:55 AM 90.5 °F 90.7 °F 61.7 °F 38% 30.03 in 10.0 mi SSW 9.2 mph 16.1 mph N/A   Clear
12:15 PM 91.2 °F 91.1 °F 60.4 °F 36% 30.03 in 10.0 mi South 12.7 mph 21.9 mph N/A   Clear
12:35 PM 92.1 °F 91.7 °F 60.3 °F 34% 30.03 in 10.0 mi South 9.2 mph 19.6 mph N/A   Clear
12:55 PM 92.7 °F 91.5 °F 57.7 °F 31% 30.02 in 7.0 mi South 12.7 mph 23.0 mph N/A   Clear
1:15 PM 93.7 °F 92.6 °F 57.7 °F 30% 30.01 in 10.0 mi South 10.4 mph 19.6 mph N/A   Clear
1:35 PM 94.1 °F 93.5 °F 59.2 °F 31% 30.00 in 10.0 mi South 5.8 mph 21.9 mph N/A   Clear
1:55 PM 93.4 °F 92.5 °F 58.8 °F 31% 30.00 in 7.0 mi SSE 10.4 mph 20.7 mph N/A   Clear
2:15 PM 94.3 °F 93.4 °F 58.1 °F 30% 29.99 in 10.0 mi South 9.2 mph 19.6 mph N/A   Clear
2:35 PM 95.2 °F 93.3 °F 54.9 °F 26% 29.98 in 10.0 mi South 12.7 mph 23.0 mph N/A   Clear
2:55 PM 95.5 °F 93.7 °F 55.6 °F 26% 29.97 in 10.0 mi South 11.5 mph 21.9 mph N/A   Clear
3:15 PM 96.1 °F 94.5 °F 56.1 °F 26% 29.96 in 7.0 mi SSW 10.4 mph 21.9 mph N/A   Clear
3:35 PM 95.2 °F 93.0 °F 54.5 °F 25% 29.95 in 10.0 mi South 13.8 mph 25.3 mph N/A   Clear
3:55 PM 94.6 °F 92.9 °F 55.8 °F 27% 29.94 in 10.0 mi South 10.4 mph 19.6 mph N/A   Clear
4:15 PM 95.7 °F 94.0 °F 56.1 °F 26% 29.93 in 10.0 mi South 9.2 mph 21.9 mph N/A   Clear
4:35 PM 94.6 °F 93.2 °F 57.0 °F 28% 29.93 in 10.0 mi South 12.7 mph 19.6 mph N/A   Clear
4:55 PM 93.6 °F 92.1 °F 57.0 °F 29% 29.92 in 10.0 mi South 6.9 mph 16.1 mph N/A   Clear
5:15 PM 94.3 °F 93.0 °F 57.2 °F 29% 29.92 in 10.0 mi South 11.5 mph 21.9 mph N/A   Clear
5:35 PM 93.6 °F 92.4 °F 57.7 °F 30% 29.91 in 10.0 mi South 10.4 mph 20.7 mph N/A   Clear
5:55 PM 93.2 °F 92.2 °F 57.9 °F 31% 29.90 in 10.0 mi SSE 12.7 mph 17.3 mph N/A   Clear
6:15 PM 92.3 °F 91.0 °F 57.9 °F 31% 29.90 in 7.0 mi South 11.5 mph 18.4 mph N/A   Clear
6:35 PM 91.9 °F 90.6 °F 57.4 °F 31% 29.90 in 10.0 mi South 9.2 mph 17.3 mph N/A   Clear
6:55 PM 91.0 °F 89.7 °F 57.2 °F 32% 29.90 in 10.0 mi South 10.4 mph 16.1 mph N/A   Clear
7:15 PM 89.8 °F 88.4 °F 57.2 °F 33% 29.91 in 10.0 mi South 6.9 mph - N/A   Clear
7:35 PM 88.3 °F 87.1 °F 57.4 °F 35% 29.91 in 10.0 mi South 4.6 mph - N/A   Clear
7:55 PM 87.3 °F 86.3 °F 58.1 °F 37% 29.92 in 10.0 mi South 4.6 mph - N/A   Clear
8:15 PM 86.2 °F 85.2 °F 58.1 °F 38% 29.92 in 10.0 mi South 6.9 mph - N/A   Clear
8:35 PM 86.4 °F 85.1 °F 56.8 °F 36% 29.93 in 10.0 mi South 5.8 mph - N/A   Clear
8:55 PM 85.3 °F 84.3 °F 57.2 °F 38% 29.94 in 10.0 mi South 5.8 mph - N/A   Clear
9:15 PM 84.2 °F 83.5 °F 57.4 °F 40% 29.95 in 10.0 mi South 4.6 mph - N/A   Clear
9:35 PM 83.7 °F 83.8 °F 60.1 °F 45% 29.96 in 10.0 mi SSE 6.9 mph - N/A   Clear
9:55 PM 82.9 °F 83.8 °F 62.4 °F 50% 29.96 in 10.0 mi SSE 5.8 mph - N/A   Clear
10:15 PM 82.8 °F 84.2 °F 64.0 °F 53% 29.97 in 10.0 mi SSE 10.4 mph - N/A   Clear
10:35 PM 82.4 °F 83.9 °F 64.4 °F 54% 29.98 in 10.0 mi South 9.2 mph 17.3 mph N/A   Clear
10:55 PM 81.7 °F 83.3 °F 64.4 °F 56% 29.98 in 10.0 mi SSE 10.4 mph 23.0 mph N/A   Clear
11:15 PM 81.0 °F 82.7 °F 64.8 °F 58% 29.98 in 10.0 mi SSE 13.8 mph 19.6 mph N/A   Clear
11:35 PM 80.2 °F 82.1 °F 65.3 °F 60% 29.98 in 10.0 mi South 9.2 mph 17.3 mph N/A   Clear
11:55 PM 79.7 °F - 65.5 °F 62% 29.97 in 10.0 mi SSE 10.4 mph 17.3 mph N/A   Clear